User: anonymous   Login
Location: Montreal
(45.5087°N, 73.5540°W)
Time: 04:14:21
(UTC-04:00)
Language:

ARIANE 6 FM1 Upper Stage - Orbit

View from above orbital plane
View from above orbital plane
View from above satellite
View from above satellite

Ground track
Ground track

The orbit is defined by the following mean orbital elements,

1 60235U          26159.84778711 +.00000000 +00000-0 +20716-3 0 00004
2 60235  61.9936 260.2492 0051376 133.9260 226.6088 15.01115919    08
Epoch (UTC): 08 June 2026 20:20:48
Eccentricity: 0.0051376
inclination: 61.9936°
perigee height: 528 km
apogee height: 599 km
right ascension of ascending node: 260.2492°
argument of perigee: 133.9260°
revolutions per day: 15.01115919
mean anomaly at epoch: 226.6088°

The dashed part of the orbit path shows where the satellite is in the earth's shadow,  

DLR